Flag for U.S.A. Weather past 2 weeks in Columbus, Georgia, U.S.A.

Now
57 °F

Partly sunny.


Feels Like: 55 °F
Forecast: 33 / 54 °F
Wind: 10 mph from East

Location: Columbus Metropolitan Airport

Current Time: Feb 28, 2015 at 2:53:43 PM

Latest Report: Feb 28, 2015 at 1:51 PM


Visibility: 10 mi

Pressure: 30.47 "Hg

Humidity: 47%

Dew point: 37 °F

Location of ColumbusLocation

Historic Weather in Columbus — Graph

°F

Columbus temperature yesterday

Maximum temperature yesterday: 56 °F (at 4:51 PM)
Minimum temperature yesterday: 31 °F (at 4:51 AM)
Average temperature yesterday: 42 °F

Past Weeks' High & Low Weather Summary

 TemperatureHumidityPressure
High69 °F (Feb 22, 3:51 PM)100% (Feb 22, 7:51 AM)30.53 "Hg (Feb 22, 7:51 AM)
Low21 °F (Feb 19, 6:51 AM)11% (Feb 15, 1:51 PM)29.67 "Hg (Feb 25, 9:51 PM)
Average42 °F58%30.15 "Hg
* Reported Feb 13 1:51 PM — Feb 28 1:51 PM, Columbus, Weather by CustomWeather, © 2015

Note: Actual official high and low records may vary slightly from our data, if they occured in-between our weather recording intervals... More about our weather records

Advertising

Columbus weather history for previous 24 hours

 ConditionsComfort  
Time TempWeatherWind HumidityBarometerVisibility
1:51 PM
Sat, Feb 28
57 °FPartly sunny.10 mph47%30.47 "Hg10 mi
12:51 PM55 °FSunny.15 mph49%30.50 "Hg10 mi
11:51 AM51 °FSunny.13 mph50%30.53 "Hg10 mi
10:51 AM50 °FSunny.13 mph50%30.53 "Hg10 mi
9:51 AM46 °FSunny.16 mph56%30.53 "Hg10 mi
8:51 AM43 °FSunny.10 mph62%30.53 "Hg10 mi
7:51 AM39 °FSunny.3 mph65%30.50 "Hg10 mi
6:51 AM37 °FClear.6 mph62%30.49 "Hg10 mi
5:51 AM36 °FClear.3 mph59%30.46 "Hg10 mi
4:51 AM34 °FClear.3 mph61%30.45 "Hg10 mi
3:51 AM34 °FClear.No wind61%30.43 "Hg10 mi
2:51 AM34 °FClear.3 mph59%30.43 "Hg10 mi
1:51 AM36 °FClear.No wind52%30.44 "Hg10 mi
12:51 AM37 °FClear.No wind48%30.44 "Hg10 mi
11:51 PM
Fri, Feb 27
39 °FClear.3 mph43%30.43 "Hg10 mi
10:51 PM41 °FClear.6 mph39%30.42 "Hg10 mi
9:51 PM43 °FClear.10 mph37%30.41 "Hg10 mi
8:51 PM45 °FClear.8 mph40%30.38 "Hg10 mi
7:51 PM47 °FClear.8 mph41%30.37 "Hg10 mi
6:51 PM50 °FClear.8 mph35%30.34 "Hg10 mi
5:51 PM54 °FSunny.8 mph30%30.32 "Hg10 mi
4:51 PM56 °FSunny.7 mph27%30.32 "Hg10 mi
3:51 PM55 °FSunny.8 mph29%30.32 "Hg10 mi
2:51 PM55 °FSunny.6 mph30%30.32 "Hg10 mi
Weather by CustomWeather, © 2015

See weather overviewHow to use our weather pages